Regional Weather Roundup
Issued by NWS

Home | Current Version | Previous Version | Text Only | Print | Product List | Glossary Off
Versions: 1 2 3 4 5 6 7 8 9 10 11 12 13 14 15 16 17 18 19 20 21 22 23 24 25 26 27 28 29 30 31 32 33 34 35 36 37 38 39 40 41 42 43 44 45 46 47 48 49 50

000
ASUS44 KMEG 071700
RWRTN
TENNESSEE HOURLY STATE WEATHER ROUNDUP
NATIONAL WEATHER SERVICE MEMPHIS TN
1100 AM CST WED DEC 07 2016

TNZ002-004-019-021-049-052-054-088>092-071800-
WEST TENNESSEE

CITY           SKY/WX    TMP DP  RH WIND       PRES   REMARKS
MEMPHIS INTL   CLOUDY    44  35  70 NE7       30.20F
NWS MEMPHIS      N/A     42 N/A N/A MISG        N/A
JACKSON        CLOUDY    42  36  79 N10       30.20F
DYERSBURG      SUNNY    N/A N/A N/A NE7       30.20F
UNION CITY     SUNNY     39  30  70 NE6       30.20F WCI  35
PARIS          SUNNY     39  28  65 NE9       30.18F WCI  33
$$

TNZ008-025-027-028-033-062-065-066-071800-
NORTH MIDDLE TENNESSEE

CITY           SKY/WX    TMP DP  RH WIND       PRES   REMARKS
NASHVILLE      PTSUNNY   44  33  65 NE9       30.17F
CLARKSVILLE    SUNNY     42  30  62 NE7       30.19F
SMYRNA         CLOUDY    42  33  70 NE8       30.17F
CROSSVILLE     CLOUDY    40  34  79 N7        30.09F
$$

TNZ061-075-076-078-094-096-097-071800-
SOUTH MIDDLE TENNESSEE

CITY           SKY/WX    TMP DP  RH WIND       PRES   REMARKS
TULLAHOMA      CLOUDY    39  36  87 NW6       30.12F WCI  35
WINCHESTER     CLOUDY    43  36  75 N6        30.11F
SHELBYVILLE    CLOUDY    43  36  75 N7        30.14F
$$

TNZ017-018-042-046-047-071800-
NORTHEAST TENNESSEE

CITY           SKY/WX    TMP DP  RH WIND       PRES   REMARKS
TRI CITIES     MOSUNNY   49  36  61 N5        30.08F
$$

TNZ012-013-036-069-073-074-071800-
CENTRAL EAST TENNESSEE

CITY           SKY/WX    TMP DP  RH WIND       PRES   REMARKS
KNOXVILLE      MOSUNNY   51  38  60 N8        30.07F
OAK RIDGE      SUNNY     50  36  58 NE5       30.09F
GATLINBURG     SUNNY     48  37  66 N5        30.07F
$$

TNZ083-085-099-071800-
SOUTHEAST TENNESSEE

CITY           SKY/WX    TMP DP  RH WIND       PRES   REMARKS
CHATTANOOGA    MOSUNNY   51  38  60 VRB3      30.09F
$$

SKY/WX REPORTED AS FAIR MEANS FEW OR NO CLOUDS BELOW
12 THOUSAND FEET.





USA.gov is the U.S. government's official web portal to all federal, state and local government web resources and services.